Location: Martley
(52.2333°N, 2.3667°W)
Time: 05:00:24
(UTC+00:00)

CZ-4B R/B - Pass Details

Date: 11 December 2019
Orbit: 809 x 881 km, 99.1° (Epoch: 21 January)

Event Time Altitude Azimuth Distance (km) Brightness Sun altitude
Rises 06:50:35 0° 12° (NNE) 3,444 6.3 -11.0°
Reaches altitude 10° 06:53:01 10° 7° (N) 2,513 5.5 -10.7°
Maximum altitude 06:58:20 47° 296° (WNW) 1,149 3.5 -9.9°
Drops below altitude 10° 07:03:42 10° 224° (SW) 2,530 5.5 -9.2°
Sets 07:06:10 0° 219° (SW) 3,469 6.3 -8.9°
